sat.trackr.live / text

‹ back to catalog

STARLINK-32426

NORAD 61681 · 2024-193W

PAYLOAD ACTIVE UNKNOWN

§ Identity

Operator
Country
US
Launch date
2024-10-26
Launch site
AFETR
Launch vehicle
Mass (kg)
RCS (m²)

Purposes: comms

External: N2YO · Heavens-Above · Gunter

§ Orbital elements

Epoch: 2026-05-25T02:47:47.957856Z

Period
94.11 min
Inclination
53.1608°
Eccentricity
0.0001720
Mean motion
15.30188649 rev/d
Perigee alt
474.1 km
Apogee alt
476.4 km
Semi-major
6,853.4 km
B*
1.8340e-5
RAAN
96.3114°
Arg perigee
104.4195°
Mean anomaly
255.6997°
Rev number
8,822

§ Raw data

STARLINK-324261 61681U 24193W   26145.11652729  .00000184  00000+0  18340-4 0  99942 61681  53.1608  96.3114 0001720 104.4195 255.6997 15.30188649 88223

JSON: /api/v1/satellites/61681 · /tle

For live sub-satellite position, see the globe view (requires WebGL).

§ Visibility from observer

Set your observer location to see the next 7 days of passes ≥ 10°. The values pass through the URL so the page stays shareable.

No JS? Fill the form by hand. The geolocation button needs JavaScript.